Orbital Elements at Epoch 2459200.5 (2020-Dec-17.0) TDB
Reference: JPL 16 (heliocentric ecliptic J2000)
Element | Value | Uncertainty (1-sigma) | Units |
e | .1370715241414912 | 4.3761e-08 | |
a | 3.085849763904359 | 2.764e-08 | au |
q | 2.662867633494328 | 1.2931e-07 | au |
i | 13.64383036730365 | 4.9963e-06 | deg |
node | 159.5370321073376 | 1.7099e-05 | deg |
peri | 235.5684403948012 | 2.6308e-05 | deg |
M | 14.02682114394574 | 1.681e-05 | deg |
tp | 2459123.353300093495 (2020-Sep-30.85330009) | 9.285e-05 | TDB |
period | 1979.979047378761 5.42 | 2.6602e-05 7.283e-08 | d yr |
n | .1818201058625312 | 2.4428e-09 | deg/d |
Q | 3.50883189431439 | 3.1428e-08 | au |
|
| | Orbit Determination Parameters
Additional Information
|